TimeEST,TemperatureF,Dew PointF,Humidity,Sea Level PressureIn,VisibilityMPH,Wind Direction,Wind SpeedMPH,Gust SpeedMPH,PrecipitationIn,Events,Conditions,WindDirDegrees,DateUTC
12:15 AM,44.6,19.4,37,30.39,10.0,ENE,3.5,-,N/A,,Mostly Cloudy,60,2012-11-18 05:15:00
12:35 AM,44.6,15.8,31,30.38,10.0,NNE,3.5,-,N/A,,Overcast,20,2012-11-18 05:35:00
12:55 AM,44.6,15.8,31,30.38,10.0,NE,4.6,-,N/A,,Overcast,50,2012-11-18 05:55:00
1:15 AM,44.6,15.8,31,30.38,10.0,NE,4.6,-,N/A,,Overcast,50,2012-11-18 06:15:00
1:35 AM,46.4,14.0,27,30.38,10.0,ENE,5.8,-,N/A,,Overcast,60,2012-11-18 06:35:00
1:55 AM,46.4,12.2,25,30.38,10.0,ENE,4.6,-,N/A,,Overcast,60,2012-11-18 06:55:00
2:15 AM,46.4,12.2,25,30.38,10.0,NE,4.6,-,N/A,,Overcast,50,2012-11-18 07:15:00
2:35 AM,46.4,10.4,23,30.38,10.0,East,5.8,-,N/A,,Overcast,80,2012-11-18 07:35:00
3:15 AM,46.4,12.2,25,30.38,10.0,East,6.9,-,N/A,,Overcast,80,2012-11-18 08:15:00
3:35 AM,46.4,14.0,27,30.38,10.0,ENE,4.6,-,N/A,,Overcast,70,2012-11-18 08:35:00
3:55 AM,48.2,15.8,27,30.38,10.0,Calm,Calm,-,N/A,,Overcast,0,2012-11-18 08:55:00
4:15 AM,46.4,15.8,29,30.38,10.0,ENE,4.6,-,N/A,,Overcast,70,2012-11-18 09:15:00
4:35 AM,46.4,15.8,29,30.37,10.0,ENE,5.8,-,N/A,,Mostly Cloudy,70,2012-11-18 09:35:00
4:55 AM,46.4,17.6,32,30.37,10.0,ENE,5.8,-,N/A,,Scattered Clouds,70,2012-11-18 09:55:00
5:15 AM,44.6,17.6,34,30.37,10.0,ENE,4.6,-,N/A,,Clear,70,2012-11-18 10:15:00
5:35 AM,44.6,17.6,34,30.37,10.0,East,5.8,-,N/A,,Clear,80,2012-11-18 10:35:00
5:55 AM,44.6,19.4,37,30.38,10.0,ENE,6.9,-,N/A,,Clear,60,2012-11-18 10:55:00
6:15 AM,44.6,21.2,39,30.38,10.0,East,5.8,-,N/A,,Clear,80,2012-11-18 11:15:00
6:35 AM,44.6,23.0,43,30.39,10.0,East,6.9,-,N/A,,Scattered Clouds,80,2012-11-18 11:35:00
6:55 AM,44.6,23.0,43,30.39,10.0,ENE,4.6,-,N/A,,Clear,60,2012-11-18 11:55:00
7:15 AM,44.6,24.8,46,30.40,10.0,ENE,3.5,-,N/A,,Scattered Clouds,70,2012-11-18 12:15:00
7:35 AM,46.4,26.6,46,30.39,10.0,ENE,3.5,-,N/A,,Mostly Cloudy,70,2012-11-18 12:35:00
7:55 AM,46.4,26.6,46,30.40,10.0,ENE,5.8,-,N/A,,Mostly Cloudy,70,2012-11-18 12:55:00
8:15 AM,46.4,28.4,50,30.40,10.0,East,4.6,-,N/A,,Mostly Cloudy,90,2012-11-18 13:15:00
8:35 AM,48.2,28.4,46,30.41,10.0,NE,3.5,-,N/A,,Scattered Clouds,50,2012-11-18 13:35:00
8:55 AM,50.0,28.4,43,30.40,10.0,ENE,5.8,-,N/A,,Clear,70,2012-11-18 13:55:00
9:15 AM,51.8,28.4,41,30.40,10.0,NE,3.5,-,N/A,,Clear,50,2012-11-18 14:15:00
9:35 AM,51.8,28.4,41,30.40,10.0,ENE,4.6,-,N/A,,Scattered Clouds,70,2012-11-18 14:35:00
9:55 AM,51.8,30.2,44,30.40,10.0,East,4.6,-,N/A,,Mostly Cloudy,90,2012-11-18 14:55:00
10:15 AM,51.8,30.2,44,30.40,10.0,East,4.6,-,N/A,,Overcast,80,2012-11-18 15:15:00
10:35 AM,53.6,30.2,41,30.39,10.0,East,5.8,-,N/A,,Scattered Clouds,100,2012-11-18 15:35:00
10:55 AM,55.4,30.2,38,30.38,10.0,ESE,8.1,-,N/A,,Clear,110,2012-11-18 15:55:00
11:15 AM,57.2,30.2,36,30.38,10.0,East,5.8,-,N/A,,Scattered Clouds,90,2012-11-18 16:15:00
11:35 AM,55.4,32.0,41,30.38,10.0,East,5.8,-,N/A,,Scattered Clouds,80,2012-11-18 16:35:00
11:55 AM,55.4,32.0,41,30.37,10.0,East,5.8,-,N/A,,Mostly Cloudy,100,2012-11-18 16:55:00
12:15 PM,57.2,32.0,38,30.36,10.0,ESE,8.1,-,N/A,,Overcast,110,2012-11-18 17:15:00
12:35 PM,59.0,32.0,36,30.35,10.0,Calm,Calm,-,N/A,,Overcast,0,2012-11-18 17:35:00
12:55 PM,59.0,32.0,36,30.34,10.0,East,5.8,-,N/A,,Overcast,90,2012-11-18 17:55:00
1:15 PM,59.0,32.0,36,30.34,10.0,ENE,5.8,-,N/A,,Overcast,70,2012-11-18 18:15:00
1:35 PM,59.0,32.0,36,30.33,10.0,NE,5.8,-,N/A,,Overcast,40,2012-11-18 18:35:00
1:55 PM,60.8,32.0,34,30.33,10.0,East,6.9,-,N/A,,Mostly Cloudy,90,2012-11-18 18:55:00
2:15 PM,60.8,32.0,34,30.33,10.0,East,5.8,-,N/A,,Mostly Cloudy,90,2012-11-18 19:15:00
2:35 PM,60.8,32.0,34,30.31,10.0,Calm,Calm,-,N/A,,Overcast,0,2012-11-18 19:35:00
2:55 PM,60.8,32.0,34,30.31,10.0,NE,5.8,-,N/A,,Mostly Cloudy,50,2012-11-18 19:55:00
3:15 PM,60.8,32.0,34,30.31,10.0,East,3.5,-,N/A,,Mostly Cloudy,90,2012-11-18 20:15:00
3:35 PM,60.8,32.0,34,30.31,10.0,ESE,8.1,-,N/A,,Mostly Cloudy,110,2012-11-18 20:35:00
3:55 PM,59.0,32.0,36,30.31,10.0,Calm,Calm,-,N/A,,Scattered Clouds,0,2012-11-18 20:55:00
4:15 PM,60.8,32.0,34,30.31,10.0,ENE,3.5,-,N/A,,Scattered Clouds,70,2012-11-18 21:15:00
4:35 PM,60.8,32.0,34,30.31,10.0,East,5.8,-,N/A,,Mostly Cloudy,90,2012-11-18 21:35:00
4:55 PM,59.0,32.0,36,30.32,10.0,ENE,4.6,-,N/A,,Mostly Cloudy,70,2012-11-18 21:55:00
5:15 PM,57.2,32.0,38,30.32,10.0,ENE,3.5,-,N/A,,Mostly Cloudy,60,2012-11-18 22:15:00
5:35 PM,55.4,32.0,41,30.33,10.0,Calm,Calm,-,N/A,,Mostly Cloudy,0,2012-11-18 22:35:00
5:55 PM,53.6,33.8,47,30.32,10.0,Calm,Calm,-,N/A,,Mostly Cloudy,0,2012-11-18 22:55:00
6:15 PM,53.6,33.8,47,30.33,10.0,Calm,Calm,-,N/A,,Mostly Cloudy,0,2012-11-18 23:15:00
6:35 PM,53.6,33.8,47,30.33,10.0,Calm,Calm,-,N/A,,Mostly Cloudy,0,2012-11-18 23:35:00
6:55 PM,53.6,33.8,47,30.33,10.0,Calm,Calm,-,N/A,,Mostly Cloudy,0,2012-11-18 23:55:00
7:15 PM,51.8,33.8,50,30.34,10.0,Calm,Calm,-,N/A,,Mostly Cloudy,0,2012-11-19 00:15:00
7:35 PM,53.6,33.8,47,30.34,10.0,Calm,Calm,-,N/A,,Overcast,0,2012-11-19 00:35:00
7:55 PM,51.8,33.8,50,30.34,10.0,Calm,Calm,-,N/A,,Overcast,0,2012-11-19 00:55:00
8:15 PM,51.8,33.8,50,30.34,10.0,Calm,Calm,-,N/A,,Mostly Cloudy,0,2012-11-19 01:15:00
8:35 PM,51.8,33.8,50,30.34,10.0,Calm,Calm,-,N/A,,Mostly Cloudy,0,2012-11-19 01:35:00
8:55 PM,51.8,33.8,50,30.34,10.0,ENE,3.5,-,N/A,,Scattered Clouds,70,2012-11-19 01:55:00
9:15 PM,51.8,33.8,50,30.34,10.0,Calm,Calm,-,N/A,,Clear,0,2012-11-19 02:15:00
9:35 PM,50.0,33.8,54,30.34,10.0,Calm,Calm,-,N/A,,Clear,0,2012-11-19 02:35:00
9:55 PM,50.0,32.0,50,30.34,10.0,East,3.5,-,N/A,,Clear,80,2012-11-19 02:55:00
10:15 PM,50.0,32.0,50,30.34,10.0,Calm,Calm,-,N/A,,Clear,0,2012-11-19 03:15:00
10:35 PM,50.0,33.8,54,30.33,10.0,Calm,Calm,-,N/A,,Clear,0,2012-11-19 03:35:00
10:55 PM,48.2,33.8,58,30.33,10.0,Calm,Calm,-,N/A,,Clear,0,2012-11-19 03:55:00
11:15 PM,46.4,33.8,62,30.33,10.0,Calm,Calm,-,N/A,,Clear,0,2012-11-19 04:15:00
11:35 PM,46.4,33.8,62,30.33,10.0,Calm,Calm,-,N/A,,Clear,0,2012-11-19 04:35:00
11:55 PM,46.4,33.8,62,30.33,10.0,Calm,Calm,-,N/A,,Clear,0,2012-11-19 04:55:00